Terug naar catalogus

LEMUR-2 CARROLLEMO

ActiefWetenschapSSO
NORAD 68489·PAYLOAD·🇩🇪 Germany

Gelanceerd Mar 30, 2026 vanaf Vandenberg Space Force Base

Loading…

Volgende Passages (komende 24 uur)

TLE

VersSource: Space-Track

Epoch: Sep 14, 2026, 14:32 UTC

1 68489U 26067CB  26257.60558747  .00002119  00000-0  21403-3 0  9996
2 68489  97.7626 214.3611 0003427 109.7396 250.4192 14.92097477 25058

Volg LEMUR-2 CARROLLEMO in realtime met AllMySat

Download on the App Store